Location: Stoke Bliss
(52.2667°N, 2.5167°W)
Time: 23:56:35
(UTC+00:00)

Meteor 1-19 Rocket - Pass Details

Date: 19 June 2021
Orbit: 808 x 927 km, 81.2° (Epoch: 02 August)

Event Time Altitude Azimuth Distance (km) Brightness Sun altitude
Rises 02:40:40 0° 352° (N) 3,574 8.3 -7.6°
Reaches altitude 10° 02:44:13 10° 13° (NNE) 2,637 8.1 -7.3°
Maximum altitude 02:47:55 16° 51° (NE) 2,205 7.7 -7.0°
Drops below altitude 10° 02:51:37 10° 90° (E) 2,634 7.3 -6.6°
Sets 02:55:08 0° 110° (ESE) 3,567 7.7 -6.3°
